Погода в Ноябрьске

Погода в Ноябрьске : погода сейчас, прогноз погоды и архив. Всё, что Вы хотите узнать о погоде в Ноябрьске!

Поиск расширенной информации на нашем сайте:

Другие новости

Новости СМИ2

Главная страница сайта

Новости сайта

03.07.2017

Напоминаем, что на нашем специализированном сайте Метеоцентр.Азия вы можете получить высокодетализированные автоматические прогнозы погоды по пунктам России, СНГ и мира в авиационном формате (включающие направление и скорость ветра, видимость, явления погоды, количество и форму облачности, нижнюю и верхнюю границу облачности).


Погода в Ноябрьске - сегодня

Время (UTC), дата Ветер
(°,м/с) 
Видим.   Явления Облачность Т
(°С)
Тd
(°С)
f(%) Тe
(°С)
Pmin
(гПа)
dP
(гПа)
Po
(мм)
O2
(г/м3)
Тmin Tmax R s Состояние
почвы
12 15.06.18 330 (СЗ) 20000 м  {дождь}  10/4 1000 м средняя 
[Sc|Ac und]
+13.7 +9.1 74 +14  1005.3  -0.8  742  283           
15 15.06.18 290 (З) 20000 м    10/6 1000 м средняя 
[Sc|Ac und]
+13.2 +9.5 78 +15  1005.3  742  284    +17.7  0.1     
18 15.06.18 350 (С) 20000 м    10/8 900 м средняя 
[Sc|Ac und]
+12.4 +10 85 +15  1004.3  -1.1  742  284           
21 15.06.18 тихо ()   20000 м    10/8 700 м средняя 
[Sc|Ac und]
+11.2 +10.9 98 +14  1004.3  -0.1  742  285           
00 16.06.18 050 (СВ) 20000 м    9/6 750 м средняя 
[Sc|Ac trans]
+12.2 +11.3 94 +16  1004  -0.1  741  284           
03 16.06.18 110 (В) 20000 м    10/6 700 м средняя 
[Sc|Ac und]
+14.9 +11.6 81 +20  1004.3  0.4  742  281  +11.2         
06 16.06.18 140 (ЮВ) 20000 м    6/3 1000 м средняя 
[Cu hum|Ac trans]
+20.8 +7.2 41 +21  1004.4  0.4  742  277           
09 16.06.18 100 (В) 20000 м    6/6 1000 м 
[Cu hum]
+23.1 +6.5 34 +23  1004.7  0.4  742  275           
12 16.06.18 110 (В) 20000 м    6/6 1000 м 
[Sc diur, vesp]
+22.8 +7.5 37 +23  1005.2  0.5  743  275           
15 16.06.18 230 (ЮЗ) 4000 м  слаб. ливневой дождь  8/8 1000 м кучево-дожд. 
[Cb cap]
+18.9 +12.1 65 +24  1006.4  743  278    +23.8  0.0     
21 16.06.18 010 (С) 20000 м    6/3 1000 м средняя 
[Sc|Ac trans]
+10.8 +10.8 100 +14  1005.7  -0.8  743  286           
00 17.06.18 010 (С) 20000 м    6/4 1000 м средняя 
[Sc|Ac trans]
+15.1 +12.5 84 +21  1004  -1.3  742  281           
03 17.06.18 030 (СВ) 20000 м  {ливн. осадки}  6/3 1000 м средняя 
[Cu med, cong|Ac trans]
+20.2 +12.9 63 +26  1002.8  -0.9  741  275  +10.8    0.0    влажная 
15 17.06.18 150 (ЮВ) 20000 м    10/10 420 м 
[Sc]
+11.6 +10 90 +13  1006  743  285    +22.3     
18 17.06.18 100 (В) 20000 м    3/3 300 м 
[Sc]
+7.4 +6.5 94 +8  1007.6  1.3  744  291           
21 17.06.18 060 (СВ) 20000 м    4/0 средняя 
[Ac trans]
+5 +4.3 95 +6  1007.7  744  294           
00 18.06.18 040 (СВ) 20000 м    3/0 средняя 
[Ac trans]
+9.2 +8.6 96 +10  1007.1  -0.3  744  288           
03 18.06.18 040 (СВ) 20000 м    6/0 средняя 
[Ac trans]
+17.5 +9.3 59 +18  1005.8  -0.9  743  280  +4.4        влажная 
06 18.06.18 030 (СВ) 20000 м  в посл. час ливневой дождь  8/4 1000 м кучево-дожд., средняя 
[Cb cap|Ac trans]
+19.5 +10.3 55 +22  1004.4  -1.3  742  277           
15 18.06.18 080 (В) 2{12}  20000 м  {ливн. осадки}  8/6 1000 м кучево-дожд., средняя 
[Cb cap|Ac trans]
+16.7 +11 69 +21  1003  0.1  741  279    +21.9  0.8     
18 18.06.18 360 (С) 20000 м    6/4 1000 м кучево-дожд., средняя 
[Cb cap|Ac trans]
+11.4 +11.2 99 +16  1001.9  -1.4  740  284           
21 18.06.18 360 (С) 20000 м    8/6 600 м кучево-дожд., средняя 
[Cb cap|Ac trans]
+10.9 +10 94 +13  1001.3  -0.6  739  285           
00 19.06.18 320 (СЗ) 20000 м    10/10 240 м 
[St]
+13.3 +13.2 99 +20  999.5  -1.6  738  281           
03 19.06.18 030 (СВ) 4000 м  ливневой дождь  10/10 210 м кучево-дожд. 
[Cb cap]
+14.3 +13.9 97 +23  998.6  -0.8  737  279  +10.5    0.3     
09 19.06.18 120 (ЮВ) 20000 м    9/6 1000 м кучево-дожд., средняя, верхняя 
[Cb cap|Ac trans|Ci fib]
+18.5 +13.4 72 +25  997.1  -0.3  737  275           
Время (UTC), дата Ветер
(°,м/с) 
Видим.   Явления Облачность Т
(°С)
Тd
(°С)
f(%) Тe
(°С)
Pmin
(гПа)
dP
(гПа)
Po
(мм)
O2
(г/м3)
Тmin Tmax R s Состояние
почвы

Для получения пояснительной информации подведите курсор к названию столбца.

ПОГОДА в Ноябрьске - архив

Всё, что Вы хотите узнать о погоде в Ноябрьске - удобно и подробно!

Выберите нужную дату (начиная с 1 января 2015* года) и нажмите кнопку "Найти".
Будут отображены архивные сводки погоды по пункту Ноябрьск, начиная с указанной даты.


Отображать данные в формате CSV (для использования в таблицах Excel)


Внимание! Наш архив погоды предназначен исключительно для личного некоммерческого использования в познавательных целях. Если Вам необходимы официальные справки о состоянии погоды (для производственных, юридических, коммерческих и т.п. целей), обращайтесь в органы Росгидромета.

*Примечание: данная дата относится к архиву по метеостанциям СССР (Россия, СНГ, Балтия).
Архив по метеостанциям Зарубежной Европы и Азии (кроме Китая) хранится 10 дней, по другим регионам земного шара (Китай, Африка, Америка, Австралия, Океания) - 1 день.

Ноябрьск - район местоположения метеостанции


Название, широта, долгота, высота метеостанции:
Ноябрьск 63.2°ш. 75.4°д. 120 м над ур. моря [Российская Федерация]

Дополнительная информация

В oтличие oт бoльшинства пoгoдных сайтoв мы публикуем пoдрoбную метеoинфoрмацию в детальнoм прoфессиoнальнoм фoрмате.

Характеристики температуры и влажнoсти вoздуха измеряются на высoте 2 м в тени вдали oт зданий и деревьев.
Скoрoсть ветра измеряется на высoте 10 м (на урoвне рoста челoвека скoрoсть ветра ниже в 1.5-2 раза). Если метеoстанция нахoдится в гoрoде или в лесу, тo скoрoсть ветра занижена на 2-4 м/с пo сравнению с oткрытым местoм. Скoрoсть ветра над акватoриями крупных рек и oзёр, а также на вершинах хoлмoв на 2-5 м/с выше, чем в oбычных услoвиях.
Атмoсфернoе давление в разных тoчках местнoсти мoжет значительнo oтличаться oт давления на метеoстанции, в зависимoсти oт услoвий рельефа (при пoдъёме на 10 м давление пoнижается примернo на 1 мм рт.ст.).